Location: Carnetin
(48.9010°N, 2.7059°E)
Time: 11:46:09
(UTC+00:00)

Cosmos 1825 - Pass Details

Date: 29 May 2022
Orbit: 496 x 498 km, 82.5° (Epoch: 01 July)

Event Time Altitude Azimuth Distance (km) Brightness Sun altitude
Rises 02:21:38 0° 144° (SE) 2,573 5.6 -11.5°
Reaches altitude 10° 02:24:30 10° 119° (ESE) 1,697 4.9 -11.2°
Maximum altitude 02:26:34 14° 85° (E) 1,445 5.1 -11.0°
Drops below altitude 10° 02:28:38 10° 51° (NE) 1,707 6.3 -10.8°
Sets 02:31:30 0° 27° (NNE) 2,597 7.7 -10.5°
